When you browse on this site, cookies collect data to enhance your experience and personalize the content and advertising you see.
Visit our Privacy Policy to learn more. By continuing to use the site, you agree to this use of cookies and data.
  • Em Portugal
  • Lista de países
  • Para 7 dias
  • Temperatura da água
  • Mapas de satélite
  • Mapa do tempo
  • Widgets de tempo
  • user-avatar
    Iniciar Sessão

    Previsão horária em Shuhovcy

    Hoje, 23 Maio, Quinta-feira

    Tempo Temperatura Precipitação Vento Pressão Humidade
    00:00 +14°C° 0 mm 0 m/s 740 mmHg 83%
    01:00 +15°C° 0 mm 1 m/s 739 mmHg 83%
    02:00 +14°C° 0 mm 1 m/s 739 mmHg 84%
    03:00 +14°C° 0 mm 1 m/s 739 mmHg 84%
    04:00 +14°C° 0 mm 1 m/s 739 mmHg 83%
    05:00 +15°C° 0 mm 1 m/s 739 mmHg 83%
    06:00 +16°C° 0 mm 1 m/s 739 mmHg 77%
    07:00 +19°C° 0 mm 1 m/s 740 mmHg 72%
    08:00 +20°C° 0 mm 2 m/s 740 mmHg 67%
    09:00 +21°C° 0 mm 2 m/s 740 mmHg 62%
    10:00 +24°C° 0 mm 2 m/s 740 mmHg 57%
    11:00 +25°C° 0 mm 3 m/s 740 mmHg 52%
    12:00 +25°C° 0 mm 3 m/s 739 mmHg 52%
    13:00 +25°C° 0 mm 3 m/s 739 mmHg 52%
    14:00 +26°C° 0 mm 4 m/s 739 mmHg 52%
    15:00 +25°C° 0.1 mm 3 m/s 739 mmHg 55%
    16:00 +25°C° 0.1 mm 3 m/s 739 mmHg 58%
    17:00 +25°C° 0.1 mm 2 m/s 739 mmHg 61%
    18:00 +23°C° 0.2 mm 2 m/s 739 mmHg 68%
    19:00 +20°C° 0.2 mm 2 m/s 739 mmHg 74%
    20:00 +19°C° 0.2 mm 1 m/s 739 mmHg 81%
    21:00 +18°C° 0 mm 1 m/s 739 mmHg 83%
    22:00 +18°C° 0 mm 1 m/s 739 mmHg 85%
    23:00 +16°C° 0 mm 1 m/s 739 mmHg 88%

    Amanhã, 24 Maio, Sexta-feira

    Tempo Temperatura Precipitação Vento Pressão Humidade
    00:00 +16°C° 0.1 mm 1 m/s 739 mmHg 89%
    01:00 +15°C° 0.1 mm 1 m/s 739 mmHg 90%
    02:00 +15°C° 0.1 mm 1 m/s 739 mmHg 91%
    03:00 +15°C° 0.3 mm 1 m/s 739 mmHg 91%
    04:00 +15°C° 0.3 mm 1 m/s 739 mmHg 92%
    05:00 +15°C° 0.3 mm 1 m/s 739 mmHg 93%
    06:00 +18°C° 0 mm 1 m/s 740 mmHg 88%
    07:00 +19°C° 0 mm 1 m/s 740 mmHg 84%
    08:00 +19°C° 0 mm 0 m/s 740 mmHg 80%
    09:00 +22°C° 1.8 mm 1 m/s 740 mmHg 77%
    10:00 +23°C° 1.8 mm 1 m/s 740 mmHg 74%
    11:00 +23°C° 1.8 mm 2 m/s 740 mmHg 71%
    12:00 +23°C° 2.1 mm 2 m/s 740 mmHg 72%
    13:00 +23°C° 2.1 mm 2 m/s 740 mmHg 74%
    14:00 +23°C° 2.1 mm 2 m/s 740 mmHg 75%
    15:00 +21°C° 0.8 mm 2 m/s 740 mmHg 78%
    16:00 +21°C° 0.8 mm 3 m/s 740 mmHg 81%
    17:00 +20°C° 0.8 mm 3 m/s 739 mmHg 84%
    18:00 +19°C° 0.1 mm 3 m/s 739 mmHg 87%
    19:00 +18°C° 0.1 mm 3 m/s 739 mmHg 89%
    20:00 +17°C° 0.1 mm 3 m/s 739 mmHg 91%
    21:00 +17°C° 0 mm 3 m/s 739 mmHg 93%
    22:00 +16°C° 0 mm 3 m/s 739 mmHg 94%
    23:00 +14°C° 0 mm 3 m/s 739 mmHg 95%

    Depois de amanhã, 25 Maio, Sábado

    Tempo Temperatura Precipitação Vento Pressão Humidade
    00:00 +15°C° 0.1 mm 2 m/s 739 mmHg 95%
    01:00 +15°C° 0.1 mm 2 m/s 739 mmHg 95%
    02:00 +14°C° 0.1 mm 2 m/s 739 mmHg 96%
    03:00 +15°C° 0.2 mm 2 m/s 738 mmHg 95%
    04:00 +15°C° 0.2 mm 2 m/s 738 mmHg 95%
    05:00 +15°C° 0.2 mm 1 m/s 738 mmHg 94%
    06:00 +16°C° 0.2 mm 1 m/s 738 mmHg 90%
    07:00 +19°C° 0.2 mm 1 m/s 738 mmHg 86%
    08:00 +20°C° 0.2 mm 1 m/s 738 mmHg 82%
    09:00 +20°C° 0.7 mm 2 m/s 738 mmHg 79%
    10:00 +21°C° 0.7 mm 2 m/s 738 mmHg 77%
    11:00 +21°C° 0.7 mm 2 m/s 738 mmHg 74%
    12:00 +21°C° 1.4 mm 2 m/s 737 mmHg 77%
    13:00 +20°C° 1.4 mm 2 m/s 737 mmHg 80%
    14:00 +20°C° 1.4 mm 2 m/s 737 mmHg 83%
    15:00 +21°C° 0.6 mm 1 m/s 736 mmHg 85%
    16:00 +20°C° 0.6 mm 1 m/s 736 mmHg 86%
    17:00 +20°C° 0.6 mm 1 m/s 736 mmHg 87%
    18:00 +19°C° 0.1 mm 1 m/s 736 mmHg 88%
    19:00 +18°C° 0.1 mm 1 m/s 736 mmHg 90%
    20:00 +16°C° 0.1 mm 1 m/s 736 mmHg 91%
    21:00 +15°C° 0 mm 2 m/s 736 mmHg 91%
    22:00 +14°C° 0 mm 2 m/s 736 mmHg 91%
    23:00 +12°C° 0 mm 3 m/s 736 mmHg 91%

    26 Maio, Domingo

    Tempo Temperatura Precipitação Vento Pressão Humidade
    00:00 +12°C° 0 mm 3 m/s 736 mmHg 92%
    01:00 +11°C° 0 mm 3 m/s 736 mmHg 94%
    02:00 +11°C° 0 mm 4 m/s 736 mmHg 95%
    03:00 +10°C° 0 mm 3 m/s 736 mmHg 95%
    04:00 +9°C° 0 mm 3 m/s 737 mmHg 95%
    05:00 +8°C° 0 mm 3 m/s 737 mmHg 95%
    06:00 +10°C° 0 mm 3 m/s 737 mmHg 90%
    07:00 +11°C° 0 mm 3 m/s 737 mmHg 85%
    08:00 +12°C° 0 mm 4 m/s 737 mmHg 80%
    09:00 +13°C° 0 mm 4 m/s 737 mmHg 75%
    10:00 +14°C° 0 mm 4 m/s 737 mmHg 70%
    11:00 +16°C° 0 mm 5 m/s 737 mmHg 66%
    12:00 +16°C° 0.1 mm 5 m/s 737 mmHg 65%
    13:00 +17°C° 0.1 mm 5 m/s 736 mmHg 63%
    14:00 +17°C° 0.1 mm 5 m/s 736 mmHg 62%
    15:00 +17°C° 0.3 mm 5 m/s 736 mmHg 66%
    16:00 +18°C° 0.3 mm 4 m/s 736 mmHg 70%
    17:00 +17°C° 0.3 mm 4 m/s 735 mmHg 75%
    18:00 +15°C° 0.7 mm 4 m/s 735 mmHg 81%
    19:00 +13°C° 0.7 mm 4 m/s 735 mmHg 87%
    20:00 +11°C° 0.7 mm 4 m/s 735 mmHg 93%
    21:00 +10°C° 0.3 mm 4 m/s 735 mmHg 94%
    22:00 +8°C° 0.3 mm 4 m/s 735 mmHg 94%
    23:00 +8°C° 0.3 mm 4 m/s 735 mmHg 94%

    27 Maio, Segunda-feira

    Tempo Temperatura Precipitação Vento Pressão Humidade
    00:00 +7°C° 0.2 mm 4 m/s 735 mmHg 94%
    01:00 +7°C° 0.2 mm 4 m/s 735 mmHg 93%
    02:00 +6°C° 0.2 mm 4 m/s 736 mmHg 93%
    03:00 +6°C° 0 mm 4 m/s 736 mmHg 93%
    04:00 +6°C° 0 mm 5 m/s 736 mmHg 93%
    05:00 +5°C° 0 mm 5 m/s 737 mmHg 94%
    06:00 +6°C° 0 mm 5 m/s 737 mmHg 90%
    07:00 +6°C° 0 mm 5 m/s 738 mmHg 87%
    08:00 +7°C° 0 mm 6 m/s 738 mmHg 84%
    09:00 +8°C° 0 mm 6 m/s 739 mmHg 79%
    10:00 +10°C° 0 mm 6 m/s 739 mmHg 75%
    11:00 +11°C° 0 mm 6 m/s 740 mmHg 71%
    12:00 +11°C° 0 mm 6 m/s 740 mmHg 72%
    13:00 +12°C° 0 mm 5 m/s 741 mmHg 72%
    14:00 +13°C° 0 mm 5 m/s 741 mmHg 73%
    15:00 +13°C° 0 mm 4 m/s 741 mmHg 73%
    16:00 +13°C° 0 mm 4 m/s 741 mmHg 74%
    17:00 +13°C° 0 mm 4 m/s 742 mmHg 75%
    18:00 +13°C° 0 mm 3 m/s 742 mmHg 79%
    19:00 +12°C° 0 mm 3 m/s 742 mmHg 82%
    20:00 +12°C° 0 mm 2 m/s 742 mmHg 85%
    21:00 +10°C° 0 mm 2 m/s 743 mmHg 88%
    22:00 +9°C° 0 mm 2 m/s 743 mmHg 91%
    23:00 +9°C° 0 mm 2 m/s 743 mmHg 93%

    28 Maio, Terça-feira

    Tempo Temperatura Precipitação Vento Pressão Humidade
    00:00 +8°C° 0 mm 2 m/s 743 mmHg 94%
    01:00 +8°C° 0 mm 3 m/s 743 mmHg 94%
    02:00 +8°C° 0 mm 3 m/s 743 mmHg 94%
    03:00 +8°C° 0 mm 3 m/s 743 mmHg 93%
    04:00 +9°C° 0 mm 3 m/s 743 mmHg 92%
    05:00 +9°C° 0 mm 3 m/s 743 mmHg 91%
    06:00 +11°C° 0 mm 3 m/s 743 mmHg 86%
    07:00 +13°C° 0 mm 4 m/s 743 mmHg 80%
    08:00 +15°C° 0 mm 4 m/s 743 mmHg 75%
    09:00 +17°C° 0 mm 4 m/s 743 mmHg 71%
    10:00 +17°C° 0 mm 5 m/s 743 mmHg 68%
    11:00 +19°C° 0 mm 5 m/s 742 mmHg 65%
    12:00 +17°C° 0.3 mm 5 m/s 742 mmHg 72%
    13:00 +16°C° 0.3 mm 5 m/s 742 mmHg 79%
    14:00 +16°C° 0.3 mm 5 m/s 741 mmHg 87%
    15:00 +15°C° 2.2 mm 6 m/s 741 mmHg 89%
    16:00 +15°C° 2.2 mm 6 m/s 740 mmHg 91%
    17:00 +15°C° 2.2 mm 6 m/s 740 mmHg 93%
    18:00 +15°C° 0.4 mm 6 m/s 739 mmHg 93%
    19:00 +16°C° 0.4 mm 5 m/s 739 mmHg 93%
    20:00 +17°C° 0.4 mm 5 m/s 739 mmHg 93%
    21:00 +18°C° 0.7 mm 4 m/s 739 mmHg 93%
    22:00 +18°C° 0.7 mm 4 m/s 739 mmHg 94%
    23:00 +17°C° 0.7 mm 4 m/s 738 mmHg 95%
    Mostrar mais